Laredo, TX

5:41 AM CDT on April 25, 2018 (GMT -0500)
Laredo International

Weather History for KLRD - May, 2013

Change the Weather History Date:

Thursday, May 9, 2013

  Actual Average Record
Temperature  
Mean Temperature 84 °F 81 °F  
Max Temperature 92 °F 92 °F 108 °F (2011)
Min Temperature 76 °F 70 °F 43 °F (1917)
Degree Days  
Heating Degree Days 0 0  
Month to date heating degree days 2 0  
Since 1 July heating degree days 517 926  
Cooling Degree Days 19 16  
Month to date cooling degree days 96 137  
Year to date cooling degree days 793 737  
Growing Degree Days 34 (Base 50)    
Moisture  
Dew Point 68 °F    
Average Humidity 64    
Maximum Humidity 74    
Minimum Humidity 44    
Precipitation  
Precipitation T in 0.08 in 1.75 in (1936)
Month to date precipitation T 0.70  
Year to date precipitation 2.49 5.08  
Sea Level Pressure  
Sea Level Pressure 29.84 in    
Wind  
Wind Speed 13 mph (SE)    
Max Wind Speed 27 mph    
Max Gust Speed 33 mph    
Visibility 9 miles    
Events Rain    
T = Trace of Precipitation, MM = Missing Value Source: NWS Daily Summary

Daily Weather History Graph

Daily Weather History Graph

Search for Another Location

Airport or City:

Astronomy

May. 09, 2013 Rise Set
Actual Time 6:52 AM CDT 8:16 PM CDT
Civil Twilight 6:27 AM CDT 8:41 PM CDT
Nautical Twilight 5:57 AM CDT 9:11 PM CDT
Astronomical Twilight 5:26 AM CDT 9:42 PM CDT
Moon 6:35 AM CDT (5/9) 8:13 PM CDT (5/9)
Length of Visible Light 14h 14m
Length of Day
13h 23m
Waning Crescent, 0% of the Moon is Illuminated
May 9
Waning Crescent
May 9
New
May 17
First Quarter
May 24
Full
May 31
Last Quarter

Hourly Weather History & Observations

Time (CDT) Temp. Heat Index Dew Point Humidity Pressure Visibility Wind Dir Wind Speed Gust Speed Precip Events Conditions
12:56 AM 77.0 °F - 66.2 °F 69% 29.92 in 10.0 mi SSE 23.0 mph 28.8 mph N/A   Overcast
1:56 AM 77.0 °F - 66.2 °F 69% 29.90 in 10.0 mi SSE 18.4 mph - N/A   Overcast
2:56 AM 77.0 °F - 66.9 °F 71% 29.85 in 10.0 mi SSE 16.1 mph - N/A   Overcast
3:56 AM 77.0 °F - 68.0 °F 74% 29.84 in 10.0 mi SSE 17.3 mph 23.0 mph N/A   Overcast
4:56 AM 77.0 °F - 68.0 °F 74% 29.87 in 10.0 mi SSE 15.0 mph - N/A   Overcast
5:56 AM 77.0 °F - 68.9 °F 76% 29.85 in 10.0 mi SSE 12.7 mph - N/A   Mostly Cloudy
6:56 AM 77.0 °F - 68.9 °F 76% 29.86 in 9.0 mi SE 12.7 mph - N/A   Overcast
7:56 AM 77.9 °F - 68.9 °F 74% 29.88 in 7.0 mi SSE 12.7 mph - N/A   Mostly Cloudy
8:46 AM 78.8 °F - 69.8 °F 74% 29.91 in 7.0 mi SSE 17.3 mph - N/A   Scattered Clouds
8:56 AM 77.9 °F - 68.9 °F 74% 29.88 in 7.0 mi SSE 16.1 mph - N/A   Partly Cloudy
9:56 AM 79.0 °F - 68.9 °F 71% 29.90 in 8.0 mi SSE 13.8 mph - N/A   Scattered Clouds
10:56 AM 79.9 °F - 68.9 °F 69% 29.90 in 8.0 mi SSE 13.8 mph - N/A   Partly Cloudy
11:56 AM 81.9 °F 85.2 °F 68.9 °F 65% 29.89 in 8.0 mi SSE 15.0 mph - N/A   Clear
12:56 PM 83.8 °F 87.5 °F 68.9 °F 61% 29.88 in 8.0 mi SSE 12.7 mph - N/A   Mostly Cloudy
1:56 PM 84.9 °F 88.8 °F 68.9 °F 59% 29.86 in 8.0 mi SSE 11.5 mph - 0.00 in Rain Light Rain
2:56 PM 88.0 °F 92.1 °F 68.9 °F 53% 29.83 in 9.0 mi SSE 13.8 mph - 0.00 in   Mostly Cloudy
3:56 PM 90.0 °F 94.5 °F 68.9 °F 50% 29.79 in 10.0 mi South 8.1 mph - N/A   Mostly Cloudy
4:56 PM 90.0 °F 93.6 °F 68.0 °F 48% 29.77 in 10.0 mi SE 3.5 mph - N/A   Clear
5:56 PM 90.9 °F 93.1 °F 65.8 °F 43% 29.75 in 10.0 mi Variable 3.5 mph - N/A   Scattered Clouds
6:56 PM 90.9 °F 94.0 °F 66.9 °F 45% 29.74 in 10.0 mi East 10.4 mph - N/A   Scattered Clouds
7:56 PM 88.9 °F 91.8 °F 66.9 °F 48% 29.75 in 10.0 mi ESE 10.4 mph - N/A   Scattered Clouds
8:56 PM 86.0 °F 89.4 °F 68.0 °F 55% 29.79 in 10.0 mi East 10.4 mph - N/A   Clear
9:56 PM 84.9 °F 88.8 °F 68.9 °F 59% 29.83 in 10.0 mi East 6.9 mph - N/A   Clear
10:56 PM 82.9 °F 87.0 °F 70.0 °F 65% 29.83 in 8.0 mi SE 11.5 mph - N/A   Clear
11:56 PM 82.9 °F 87.5 °F 70.9 °F 67% 29.85 in 7.0 mi SSE 13.8 mph - 0.00 in Rain Light Rain